Location: Newark
(29.7944°N, 96.1047°W)
Time: 10:08:05
(UTC+00:00)

Tiangong 2 - Visible Passes

Search period start: 19 July 2019 00:00
Search period end: 29 July 2019 00:00
Orbit: 185 x 376 km, 42.8° (Epoch: 19 July)

Date Brightness Start Highest point End Pass type
(mag) Time Alt. Az. Time Alt. Az. Time Alt. Az.
19 Jul 3.8 03:39:52 10° NNW 03:41:16 16° N 03:41:16 16° N visible
20 Jul 3.6 03:40:51 10° NNW 03:42:16 20° NNW 03:42:16 20° NNW visible
21 Jul 3.8 02:08:26 10° N 02:09:33 11° NNE 02:10:39 10° NE visible
21 Jul 3.5 03:41:32 10° NW 03:42:52 22° NW 03:42:52 22° NW visible
22 Jul 3.5 02:08:21 10° NNW 02:10:19 16° NNE 02:12:17 10° ENE visible
22 Jul 3.6 03:41:58 10° WNW 03:43:08 21° WNW 03:43:08 21° WNW visible
23 Jul 2.8 02:08:04 10° NNW 02:10:35 23° NNE 02:13:03 10° E visible
23 Jul 3.8 03:42:13 10° WNW 03:43:02 16° W 03:43:02 16° W visible
24 Jul 1.9 02:07:31 10° NW 02:10:23 38° NNE 02:12:38 14° E visible
24 Jul 4.2 03:42:25 10° W 03:42:36 11° W 03:42:36 11° W visible
25 Jul 0.9 02:06:40 10° NW 02:09:40 77° NNE 02:11:53 17° ESE visible
26 Jul 1.5 02:05:35 10° WNW 02:08:29 49° SW 02:10:49 14° SE visible
27 Jul 2.8 02:04:21 10° W 02:06:49 24° SW 02:09:18 10° SSE visible
28 Jul 3.6 02:03:24 10° WSW 02:04:41 12° SW 02:05:59 10° SSW visible
